This is the latest recevied weather packets stored in our database for station/object EUGENE. If no packets are shown the sender has not sent any weather packets the latest 10 day(s).
| Time | Temp. | Humidity | Pressure | Rain* | Wind** | Luminosity | Snow |
|---|---|---|---|---|---|---|---|
| 1777274817 | 7.22° C | 87% | 1015.8 hPa | 0 mm | - | - | - |
| 1777273918 | 7.78° C | 87% | 1015.6 hPa | 0 mm | - | - | - |
| 1777273018 | 7.78° C | 87% | 1015.4 hPa | 0 mm | - | - | - |
| 1777272118 | 7.78° C | 86% | 1015.4 hPa | 0 mm | - | - | - |
| 1777271218 | 8.33° C | 85% | 1015.2 hPa | 0 mm | - | - | - |
| 1777270318 | 8.89° C | 85% | 1015.1 hPa | 0 mm | - | - | - |
| 1777269417 | 8.89° C | 84% | 1014.9 hPa | 0 mm | - | - | - |
| 1777268518 | 9.44° C | 83% | 1014.8 hPa | 0 mm | - | - | - |
| 1777267617 | 9.44° C | 81% | 1014.6 hPa | 0 mm | - | - | - |
| 1777266717 | 10° C | 81% | 1014.4 hPa | 0 mm | - | - | - |
| 1777265817 | 10.56° C | 80% | 1014.2 hPa | 0 mm | - | - | - |
| 1777264917 | 10.56° C | 79% | 1014 hPa | 0 mm | - | - | - |
| 1777264018 | 11.11° C | 78% | 1013.8 hPa | 0 mm | - | - | - |
| 1777263118 | 11.11° C | 76% | 1013.6 hPa | 0 mm | - | - | - |
| 1777262217 | 11.67° C | 75% | 1013.4 hPa | 0 mm | - | - | - |
| 1777261317 | 12.22° C | 74% | 1013 hPa | 0 mm | - | - | - |
| 1777260417 | 12.78° C | 73% | 1012.8 hPa | 0 mm | - | - | - |
| 1777259517 | 13.33° C | 72% | 1012.5 hPa | 0 mm | - | - | - |
| 1777258617 | 13.89° C | 70% | 1012.3 hPa | 0 mm | - | - | - |
| 1777257717 | 14.44° C | 68% | 1012.2 hPa | 0 mm | - | - | - |
| 1777256817 | 15.56° C | 66% | 1012 hPa | 0 mm | - | - | - |
| 1777255917 | 16.67° C | 62% | 1011.7 hPa | 0 mm | - | - | - |
| 1777255017 | 17.22° C | 58% | 1011.5 hPa | 0 mm | - | - | - |
| 1777254117 | 17.78° C | 55% | 1011.5 hPa | 0 mm | - | - | - |
| 1777253217 | 17.22° C | 54% | 1011.5 hPa | 0 mm | - | - | - |
* Rain latest hour (hover to see other rain measurements)
** Current wind speed in m/s (hover to see current wind gust speed)